Showing default

NUSAT-45 (UZMASAT-1), 62640

Orbit data source: Space-Track

NUSAT-45 (UZMASAT-1), 62640 is an Argentinean payload satellite in SSO that was launched on Tue, 14 Jan 2025 UTC via an FALCON 9 launch vehicle from the Air Force Western Test Range (AFWTR). Payload-class satellites include a variety of spacecraft equipped with specific instruments for various scientific and technological missions. These include communications satellites like Starlink; space stations such as the ISS; scientific satellites like the Hubble; Earth observation satellites from companies like Planet Labs, Umbra, and HawkEye 360; GPS; miniature CubeSats for education and research; and military/defense satellites.

Loading next visibility...
Identifier
62640, 2025-009AH
Orbit
SSO
Country
Flag of UnknownUnknown / ARGN
Related business
None
Manufacturer
URUGUS S.A.
Mission
Operational Commercial Imaging
Bus & Motor
NEWSAT V, Unknown motor
Mass
41.5 kg wet, 38.5 kg dry
Launch date (UTC)
2025-01-14 (8 months ago)
Launch vehicle
FALCON 9
Launch site
Air Force Western Test Range (AFWTR)
Object type
Payload
Rocket body
Debris
Shape & HBR
Box, 0.4 m
Radar Cross Section
0.542 m², Medium (>0.1 m² and < 1m²)

Expand to show TLE details & history
Last TLE update: 13 hours ago

TLE from 13 hours ago
0 NUSAT-45 (UZMASAT-1)
1 62640U 25009AH  25259.49082120  .00009602  00000-0  41829-3 0  9997
2 62640  97.4199 338.5379 0002368 172.0254 188.1020 15.22412010 37173
Epoch: 2025-09-16T11:46Z
TLE epoch observation values (Epoch: 2025-09-16T11:46:46.951Z)
Latitude
-0.00008°
Longitude
166.16192°
Altitude
503.273 km
Speed
7.612 km/s
True Right ascension
22h 34m 09s
True Declination
0° 00' 00"
Sunlit
Object was in full shadow at epoch
Visualization orbit readout
Latitude
Unknown
Longitude
Unknown
Altitude
Unknown
Speed
Unknown
Apparent Right ascension
Unknown
Apparent Declination
Unknown
Sunlit
N/A
Visualization observer readout
Local Sidereal Time
17:03:12
Azimuth
Unknown
Elevation
Unknown
Doppler factor
Unknown
Orbital elements
Apogee altitude
497.159 km
Perigee altitude
493.903 km
Semi-major axis
6,873.668 km
Eccentricity
0.00024
Inclination
97.4199°
RAAN
338.5379°
Arg. of periapsis
172.0254°
True anomaly
188.09818°
Mean anomaly
188.102°
Eccentric anomaly
188.10009°
Mean motion
3.80856 °/min
Orbital period
94.52 mins
BSTAR
0.00041829
Loading maneuver chart data...
Computing Atmospheric mass density...
Loading historical data...
Loading historical data...
Loading historical data...
Loading historical data...
Loading historical data...
Loading historical data...
Loading historical data...

Documentation

Showing up to 5 results
|